Minneapolis Flying Cloud, MN

1:18 AM CDT on September 26, 2017 (GMT -0500)
Flying Cloud

Weather History for KFCM - October, 2013

Change the Weather History Date:

Tuesday, October 15, 2013

  Actual Average Record
Temperature  
Mean Temperature 50 °F -  
Max Temperature 54 °F 57 °F 70 °F (2016)
Min Temperature 46 °F 37 °F 26 °F (2006)
Degree Days  
Heating Degree Days 15    
Moisture  
Dew Point 48 °F    
Average Humidity 92    
Maximum Humidity 100    
Minimum Humidity 87    
Precipitation  
Precipitation 0.90 in - - ()
Sea Level Pressure  
Sea Level Pressure 29.73 in    
Wind  
Wind Speed 12 mph (SE)    
Max Wind Speed 23 mph    
Max Gust Speed 34 mph    
Visibility 4 miles    
Events Rain    
Averages and records for this station are not official NWS values.
T = Trace of Precipitation, MM = Missing Value Source: NWS Daily Summary

Daily Weather History Graph

Daily Weather History Graph

Search for Another Location

Airport or City:

Trip Planner

Search our weather history database for the weather conditions in past years. The results will help you decide how hot, cold, wet, or windy it might be!

Date:

Astronomy

Oct. 15, 2013 Rise Set
Actual Time 7:29 AM CDT 6:28 PM CDT
Civil Twilight 7:00 AM CDT 6:58 PM CDT
Nautical Twilight 6:26 AM CDT 7:31 PM CDT
Astronomical Twilight 5:52 AM CDT 8:05 PM CDT
Moon 4:40 PM CDT (10/15) 3:44 AM CDT (10/15)
Length of Visible Light 11h 57m
Length of Day
10h 58m
Waxing Gibbous, 88% of the Moon is Illuminated
Oct 15
Waxing Gibbous
Oct 18
Full
Oct 26
Last Quarter
Nov 3
New
Nov 9
First Quarter

Hourly Weather History & Observations

Time (CDT) Temp. Windchill Dew Point Humidity Pressure Visibility Wind Dir Wind Speed Gust Speed Precip Events Conditions
12:53 AM 50.0 °F - 48.0 °F 93% 29.91 in 2.5 mi East 15.0 mph 24.2 mph 0.24 in Rain Rain
1:03 AM 50.0 °F - 48.2 °F 94% 29.89 in 3.0 mi East 11.5 mph 23.0 mph 0.05 in Rain Rain
1:07 AM 50.0 °F - 48.2 °F 94% 29.89 in 2.5 mi East 13.8 mph - 0.07 in Rain Rain
1:10 AM 50.0 °F - 48.2 °F 94% 29.89 in 3.0 mi East 13.8 mph 21.9 mph 0.08 in Rain Rain
1:53 AM 50.0 °F - 46.9 °F 89% 29.88 in 2.5 mi East 17.3 mph 24.2 mph 0.27 in Rain Heavy Rain
1:56 AM 50.0 °F - 46.4 °F 87% 29.86 in 3.0 mi East 16.1 mph 24.2 mph 0.01 in Rain Rain
2:16 AM 50.0 °F - 46.4 °F 87% 29.83 in 2.5 mi East 19.6 mph 28.8 mph 0.12 in Rain Heavy Rain
2:28 AM 50.0 °F - 46.4 °F 87% 29.77 in 4.0 mi East 23.0 mph 33.4 mph 0.15 in Rain Light Rain
2:42 AM 50.0 °F - 46.4 °F 87% 29.78 in 6.0 mi East 21.9 mph 32.2 mph 0.16 in Rain Light Rain
2:53 AM 50.0 °F - 46.9 °F 89% 29.84 in 9.0 mi SE 16.1 mph 34.5 mph 0.17 in Rain Light Rain
3:02 AM 50.0 °F - 46.4 °F 87% 29.83 in 10.0 mi SSE 8.1 mph 24.2 mph 0.00 in Rain Light Rain
3:15 AM 50.0 °F - 46.4 °F 87% 29.81 in 10.0 mi ESE 10.4 mph - 0.00 in   Overcast
3:53 AM 50.0 °F - 46.9 °F 89% 29.76 in 8.0 mi East 15.0 mph 25.3 mph 0.00 in Rain Light Rain
4:51 AM 50.0 °F - 46.4 °F 87% 29.74 in 2.5 mi ESE 16.1 mph 23.0 mph 0.07 in Rain Rain
4:53 AM 50.0 °F - 46.9 °F 89% 29.75 in 2.5 mi ESE 17.3 mph 23.0 mph 0.07 in Rain Rain
5:00 AM 50.0 °F - 46.4 °F 87% 29.74 in 6.0 mi ESE 11.5 mph 21.9 mph 0.01 in Rain Light Rain
5:53 AM 50.0 °F - 48.0 °F 93% 29.72 in 8.0 mi ESE 12.7 mph - 0.01 in   Overcast
6:15 AM 51.8 °F - 48.2 °F 88% 29.70 in 5.0 mi ESE 10.4 mph 20.7 mph 0.00 in Rain Light Rain
6:53 AM 51.1 °F - 48.9 °F 92% 29.70 in 6.0 mi ESE 8.1 mph - 0.00 in   Overcast
7:53 AM 51.1 °F - 48.9 °F 92% 29.69 in 4.0 mi East 8.1 mph - N/A   Overcast
8:08 AM 51.8 °F - 50.0 °F 94% 29.67 in 2.0 mi East 9.2 mph - N/A   Overcast
8:15 AM 51.8 °F - 50.0 °F 94% 29.67 in 1.8 mi ESE 10.4 mph - N/A   Overcast
8:22 AM 51.8 °F - 50.0 °F 94% 29.67 in 2.5 mi ESE 8.1 mph - N/A   Overcast
8:31 AM 51.8 °F - 50.0 °F 94% 29.67 in 3.0 mi ESE 9.2 mph - N/A   Overcast
8:53 AM 53.1 °F - 51.1 °F 93% 29.68 in 4.0 mi ESE 9.2 mph - N/A   Overcast
9:08 AM 53.6 °F - 51.8 °F 94% 29.67 in 4.0 mi ESE 9.2 mph - N/A   Overcast
9:15 AM 53.6 °F - 51.8 °F 94% 29.66 in 2.5 mi ESE 11.5 mph - 0.00 in Rain Light Rain
9:22 AM 53.6 °F - 51.8 °F 94% 29.66 in 1.5 mi SE 10.4 mph - 0.01 in Rain Light Rain
9:32 AM 53.6 °F - 51.8 °F 94% 29.66 in 3.0 mi SE 9.2 mph - 0.01 in Rain Light Rain
9:39 AM 53.6 °F - 51.8 °F 94% 29.66 in 2.5 mi SE 10.4 mph - 0.01 in   Overcast
9:46 AM 53.6 °F - 51.8 °F 94% 29.66 in 3.0 mi SE 8.1 mph - 0.01 in   Overcast
9:53 AM 54.0 °F - 52.0 °F 93% 29.67 in 3.0 mi SE 8.1 mph - 0.01 in   Overcast
10:53 AM 54.0 °F - 52.0 °F 93% 29.68 in 10.0 mi South 9.2 mph - N/A   Overcast
11:04 AM 53.6 °F - 51.8 °F 94% 29.67 in 10.0 mi South 10.4 mph - N/A   Overcast
11:43 AM 53.6 °F - 51.8 °F 94% 29.67 in 2.5 mi South 15.0 mph 19.6 mph 0.01 in Rain Light Rain
11:53 AM 52.0 °F - 50.0 °F 93% 29.68 in 2.0 mi South 16.1 mph 21.9 mph 0.01 in Rain Light Rain
12:03 PM 51.8 °F - 50.0 °F 94% 29.67 in 1.5 mi SSW 10.4 mph - 0.00 in Rain Light Rain
12:29 PM 51.8 °F - 50.0 °F 94% 29.67 in 3.0 mi SSW 6.9 mph - 0.01 in Rain Light Rain
12:53 PM 51.1 °F - 48.9 °F 92% 29.69 in 10.0 mi SW 9.2 mph - 0.01 in   Overcast
1:53 PM 50.0 °F - 48.0 °F 93% 29.69 in 5.0 mi SW 8.1 mph - 0.01 in Rain Light Rain
2:30 PM 50.0 °F - 48.2 °F 94% 29.68 in 2.0 mi SW 6.9 mph - 0.03 in Rain Rain
2:43 PM 50.0 °F - 48.2 °F 94% 29.68 in 2.5 mi SSW 8.1 mph - 0.05 in Rain Light Rain
2:48 PM 50.0 °F - 48.2 °F 94% 29.68 in 3.0 mi South 8.1 mph - 0.05 in Rain Light Rain
2:53 PM 50.0 °F - 48.0 °F 93% 29.69 in 4.0 mi SSW 6.9 mph - 0.06 in Rain Light Rain
3:44 PM 50.0 °F - 48.2 °F 94% 29.68 in 10.0 mi SW 5.8 mph - 0.00 in Rain Light Rain
3:53 PM 50.0 °F - 48.0 °F 93% 29.70 in 9.0 mi SW 4.6 mph - 0.00 in Rain Light Rain
4:12 PM 50.0 °F - 48.2 °F 94% 29.69 in 8.0 mi SSW 3.5 mph - 0.00 in Rain Light Rain
4:53 PM 50.0 °F - 48.0 °F 93% 29.70 in 10.0 mi SSW 4.6 mph - 0.01 in Rain Light Rain
5:35 PM 50.0 °F - 48.2 °F 94% 29.70 in 1.8 mi SSW 4.6 mph - 0.00 in   Overcast
5:53 PM 50.0 °F - 48.0 °F 93% 29.71 in 1.5 mi SW 3.5 mph - 0.00 in   Overcast
6:46 PM 48.2 °F - 48.2 °F 100% 29.71 in 2.0 mi West 3.5 mph - 0.01 in   Overcast
6:53 PM 48.9 °F - 48.0 °F 97% 29.72 in 2.0 mi WSW 4.6 mph - 0.01 in Rain Light Rain
7:11 PM 50.0 °F - 48.2 °F 94% 29.72 in 3.0 mi WNW 3.5 mph - 0.01 in Rain Light Rain
7:53 PM 50.0 °F - 48.9 °F 96% 29.75 in 2.5 mi NNW 9.2 mph - 0.01 in   Overcast
8:22 PM 50.0 °F - 48.2 °F 94% 29.74 in 3.0 mi North 11.5 mph - N/A   Overcast
8:53 PM 50.0 °F - 48.0 °F 93% 29.77 in 3.0 mi NNW 11.5 mph - N/A   Overcast
9:53 PM 48.9 °F - 46.0 °F 90% 29.79 in 4.0 mi NNW 12.7 mph 20.7 mph 0.01 in Rain Light Rain
10:27 PM 48.2 °F - 44.6 °F 87% 29.79 in 3.0 mi NNW 12.7 mph 23.0 mph 0.00 in Rain Light Rain
10:39 PM 46.4 °F 40.7 °F 44.6 °F 93% 29.80 in 4.0 mi NNW 12.7 mph 24.2 mph 0.00 in Rain Light Rain
10:53 PM 46.9 °F - 45.0 °F 93% 29.81 in 5.0 mi NNW 12.7 mph 19.6 mph 0.00 in   Overcast
11:53 PM 46.9 °F - 44.1 °F 90% 29.83 in 10.0 mi North 12.7 mph - 0.00 in   Overcast